Flag for Poland Weather past 2 weeks in Poznan, Poland

Now
70 °F

Partly sunny.


Feels Like: 70 °F
Forecast: 62 / 85 °F
Wind: 13 mph from East

Location: Poznan Airport

Current Time: Jul 25, 2014 at 6:37:45 PM

Latest Report: Jul 25, 2014 at 6:00 PM


Visibility: N/A

Pressure: 29.98 "Hg

Humidity: 83%

Dew point: 64 °F

Location of PoznanLocation

Historic Weather in Poznan — Graph

°F

Poznan temperature yesterday

Maximum temperature yesterday: 68 °F (at 4:00 PM)
Minimum temperature yesterday: 61 °F (at 3:30 AM)
Average temperature yesterday: 64 °F

Past Weeks' High & Low Weather Summary

 TemperatureHumidityPressure
High95 °F (Jul 20, 5:30 PM)100% (Jul 13, 2:30 AM)30.18 "Hg (Jul 13, 2:30 AM)
Low54 °F (Jul 13, 5:00 AM)23% (Jul 20, 5:30 PM)29.74 "Hg (Jul 12, 6:00 PM)
Average72 °F65%29.96 "Hg
* Reported Jul 10 4:00 PM — Jul 25 4:30 PM, Poznan, Weather by CustomWeather, © 2014

Note: Actual official high and low records may vary slightly from our data, if they occured in-between our weather recording intervals... More about our weather records

Advertising

Poznan weather history for previous 24 hours

 ConditionsComfort  
Time TempWeatherWind HumidityBarometerVisibility
4:30 PM
Jul 25
70 °FScattered clouds.13 mph83%29.98 "HgN/A
4:00 PM72 °FScattered clouds.12 mph83%29.98 "HgN/A
3:30 PM70 °FThunderstorms. Scattered clouds.7 mph88%29.98 "HgN/A
3:00 PM68 °FThunderstorms. Scattered clouds.7 mph94%29.98 "HgN/A
2:30 PM72 °FScattered clouds.7 mph78%29.98 "HgN/A
2:00 PM72 °FScattered clouds.12 mph73%30.01 "HgN/A
1:30 PM72 °FScattered clouds.14 mph73%29.98 "HgN/A
1:00 PM70 °FSprinkles. Partly sunny.14 mph83%29.98 "HgN/A
12:30 PM72 °FPartly sunny.13 mph73%30.01 "HgN/A
12:00 PM70 °FPartly sunny.9 mph78%30.01 "HgN/A
11:30 AM70 °FBroken clouds.12 mph78%30.01 "HgN/A
11:00 AM70 °FPartly sunny.12 mph78%29.98 "HgN/A
10:30 AM68 °FPartly sunny.10 mph88%29.98 "HgN/A
10:00 AM66 °FPartly sunny.10 mph88%29.98 "HgN/A
9:30 AM66 °FPartly sunny.12 mph88%29.98 "HgN/A
9:00 AM66 °FPartly sunny.10 mph88%29.98 "HgN/A
8:30 AM66 °FSunny.10 mph88%29.98 "Hg10 mi
8:00 AM66 °FSunny.8 mph88%29.98 "Hg10 mi
7:30 AM66 °FSunny.6 mph88%29.98 "Hg10 mi
7:00 AM64 °FSunny.6 mph94%29.98 "Hg10 mi
6:30 AM64 °FPassing clouds.5 mph94%29.98 "HgN/A
6:00 AM63 °FPassing clouds.3 mph94%29.98 "HgN/A
5:30 AM63 °FClear.2 mph94%29.98 "Hg10 mi
5:00 AM64 °FClear.2 mph94%29.98 "Hg10 mi
4:30 AM64 °FClear.2 mph88%29.98 "Hg10 mi
4:00 AM64 °FClear.2 mph94%29.95 "Hg10 mi
3:30 AM64 °FClear.3 mph94%29.98 "Hg10 mi
3:00 AM64 °FClear.3 mph94%29.98 "Hg10 mi
2:30 AM64 °FLight rain. Clear.2 mph94%29.98 "HgN/A
2:00 AM64 °FLight rain. Clear.5 mph94%29.98 "HgN/A
1:30 AM64 °FPassing clouds.5 mph94%29.98 "HgN/A
1:00 AM64 °FClear.3 mph94%29.98 "Hg10 mi
12:30 AM64 °FClear.3 mph94%29.98 "Hg10 mi
12:00 AM66 °FClear.3 mph88%29.98 "Hg10 mi
11:30 PM
Jul 24
66 °FLight rain. Passing clouds.3 mph88%29.98 "HgN/A
11:00 PM66 °FLight rain. Passing clouds.3 mph88%29.98 "HgN/A
10:30 PM66 °FClear.5 mph88%29.98 "Hg10 mi
10:00 PM66 °FClear.5 mph88%29.98 "Hg10 mi
9:30 PM66 °FPassing clouds.14 mph94%29.98 "HgN/A
9:00 PM66 °FSunny.6 mph94%29.95 "Hg10 mi
8:30 PM66 °FLight rain. Passing clouds.7 mph94%29.95 "HgN/A
8:00 PM66 °FLight rain. Passing clouds.9 mph94%29.95 "HgN/A
7:30 PM66 °FLight rain. Scattered clouds.3 mph94%29.95 "HgN/A
7:00 PM66 °FLight rain. Passing clouds.6 mph94%29.95 "HgN/A
6:30 PM66 °FPassing clouds.7 mph94%29.95 "HgN/A
6:00 PM66 °FLight rain. Passing clouds.7 mph94%29.95 "HgN/A
Weather by CustomWeather, © 2014

See weather overviewHow to use our weather pages